| time (UTC) | temp F | wind direction | speed MPH | gust MPH | rain 1hr in | rain 24hr in | rain mn in | humidity % | barometer mb |
| 20260507020803 | 44 | 84 | 0.0 | 0.0 | 0.00 | 0.52 | 0.52 | 99 | 1008.7 |
| 20260507020259 | 44 | 84 | 0.0 | 0.0 | 0.00 | 0.52 | 0.52 | 99 | 1009.0 |
| 20260507015757 | 44 | 84 | 0.0 | 0.0 | 0.00 | 0.52 | 0.52 | 99 | 1008.6 |
| 20260507015254 | 44 | 84 | 0.0 | 0.0 | 0.00 | 0.52 | 0.52 | 99 | 1008.5 |
| 20260507014751 | 44 | 84 | 0.0 | 0.0 | 0.00 | 0.52 | 0.52 | 99 | 1008.9 |
| 20260507014247 | 44 | 84 | 0.0 | 0.0 | 0.00 | 0.52 | 0.52 | 99 | 1008.7 |
| 20260507013744 | 44 | 84 | 0.0 | 0.0 | 0.00 | 0.52 | 0.52 | 99 | 1008.9 |
| 20260507013241 | 44 | 84 | 0.0 | 0.0 | 0.00 | 0.52 | 0.52 | 99 | 1009.0 |
| 20260507012739 | 44 | 84 | 0.0 | 0.0 | 0.00 | 0.52 | 0.52 | 99 | 1008.8 |
| 20260507012234 | 44 | 86 | 0.0 | 0.0 | 0.00 | 0.52 | 0.52 | 99 | 1008.7 |
| 20260507011732 | 44 | 83 | 0.0 | 0.0 | 0.00 | 0.52 | 0.52 | 99 | 1008.8 |
| 20260507011228 | 44 | 83 | 0.0 | 0.0 | 0.00 | 0.52 | 0.52 | 99 | 1008.7 |
| 20260507010728 | 44 | 83 | 0.0 | 0.0 | 0.00 | 0.52 | 0.52 | 99 | 1008.6 |
| 20260507010224 | 44 | 83 | 0.0 | 0.0 | 0.00 | 0.52 | 0.52 | 99 | 1008.6 |
| 20260507005722 | 44 | 83 | 0.0 | 0.0 | 0.00 | 0.52 | 0.52 | 99 | 1008.4 |
| 20260507005218 | 44 | 83 | 0.0 | 1.0 | 0.00 | 0.52 | 0.52 | 99 | 1008.3 |
| 20260507004714 | 44 | 170 | 0.0 | 0.0 | 0.00 | 0.52 | 0.52 | 99 | 1008.3 |
| 20260507004212 | 44 | 181 | 0.0 | 0.0 | 0.00 | 0.52 | 0.52 | 99 | 1008.0 |
| 20260507003708 | 44 | 189 | 1.0 | 1.0 | 0.00 | 0.52 | 0.52 | 99 | 1008.0 |
| 20260507003203 | 44 | 225 | 1.0 | 1.0 | 0.00 | 0.52 | 0.52 | 99 | 1008.5 |
| 20260507002700 | 44 | 186 | 0.0 | 0.0 | 0.00 | 0.52 | 0.52 | 99 | 1008.0 |
| 20260507002156 | 44 | 212 | 1.0 | 1.0 | 0.00 | 0.52 | 0.52 | 99 | 1007.9 |
| 20260507001653 | 44 | 206 | 0.0 | 1.0 | 0.00 | 0.52 | 0.52 | 99 | 1008.2 |
| 20260507001150 | 44 | 202 | 0.0 | 0.0 | 0.00 | 0.52 | 0.52 | 99 | 1008.0 |
| 20260507000646 | 44 | 204 | 0.0 | 0.0 | 0.00 | 0.52 | 0.52 | 99 | 1008.2 |
| 20260507000142 | 44 | 204 | 0.0 | 0.0 | 0.00 | 0.52 | 0.52 | 99 | 1007.9 |
| 20260506235639 | 44 | 201 | 0.0 | 0.0 | 0.00 | 0.52 | 0.52 | 99 | 1007.6 |
| 20260506235139 | 45 | 211 | 1.0 | 2.0 | 0.00 | 0.52 | 0.52 | 99 | 1007.8 |
| 20260506234637 | 45 | 159 | 0.0 | 0.0 | 0.00 | 0.52 | 0.52 | 99 | 1007.6 |
| 20260506234134 | 45 | 76 | 0.0 | 1.0 | 0.00 | 0.52 | 0.52 | 99 | 1007.5 |
| 20260506233631 | 45 | 182 | 0.0 | 1.0 | 0.00 | 0.52 | 0.52 | 99 | 1007.8 |
| 20260506233128 | 45 | 204 | 1.0 | 2.0 | 0.00 | 0.52 | 0.52 | 99 | 1007.5 |
| 20260506232624 | 45 | 171 | 1.0 | 1.0 | 0.00 | 0.52 | 0.52 | 99 | 1007.5 |
| 20260506232120 | 45 | 181 | 0.0 | 1.0 | 0.00 | 0.52 | 0.52 | 99 | 1007.4 |
| 20260506231617 | 45 | 171 | 1.0 | 1.0 | 0.00 | 0.52 | 0.52 | 99 | 1007.4 |
| 20260506231115 | 45 | 130 | 0.0 | 1.0 | 0.00 | 0.52 | 0.52 | 99 | 1007.5 |
| 20260506230612 | 45 | 229 | 2.0 | 3.0 | 0.00 | 0.52 | 0.52 | 99 | 1007.3 |
| 20260506230109 | 45 | 154 | 1.0 | 2.0 | 0.00 | 0.52 | 0.52 | 99 | 1007.1 |
| 20260506225605 | 45 | 94 | 1.0 | 1.0 | 0.00 | 0.52 | 0.52 | 99 | 1007.1 |
| 20260506225102 | 46 | 283 | 2.0 | 2.0 | 0.00 | 0.52 | 0.52 | 99 | 1007.0 |
| 20260506224559 | 46 | 214 | 1.0 | 2.0 | 0.00 | 0.52 | 0.52 | 98 | 1007.1 |
| 20260506224055 | 46 | 72 | 1.0 | 3.0 | 0.00 | 0.52 | 0.52 | 98 | 1006.8 |
| 20260506223551 | 46 | 139 | 0.0 | 1.0 | 0.00 | 0.52 | 0.52 | 98 | 1007.0 |
| 20260506223048 | 46 | 181 | 0.0 | 0.0 | 0.00 | 0.52 | 0.52 | 98 | 1006.7 |
| 20260506222545 | 46 | 60 | 0.0 | 1.0 | 0.00 | 0.52 | 0.52 | 99 | 1006.7 |
| 20260506222041 | 46 | 172 | 2.0 | 3.0 | 0.00 | 0.52 | 0.52 | 99 | 1006.7 |
| 20260506221539 | 46 | 167 | 0.0 | 1.0 | 0.00 | 0.52 | 0.52 | 99 | 1006.9 |
| 20260506221037 | 46 | 177 | 4.0 | 6.0 | 0.00 | 0.52 | 0.52 | 99 | 1006.7 |
| 20260506220532 | 46 | 200 | 1.0 | 1.0 | 0.00 | 0.52 | 0.52 | 99 | 1006.7 |
| 20260506220028 | 46 | 195 | 1.0 | 2.0 | 0.00 | 0.52 | 0.52 | 99 | 1006.8 |
| 20260506215525 | 46 | 214 | 2.0 | 2.0 | 0.00 | 0.52 | 0.52 | 99 | 1006.8 |
| 20260506215020 | 46 | 170 | 2.0 | 2.0 | 0.00 | 0.52 | 0.52 | 99 | 1006.8 |
| 20260506214518 | 46 | 179 | 0.0 | 0.0 | 0.00 | 0.52 | 0.52 | 99 | 1006.3 |
| 20260506214015 | 46 | 100 | 3.0 | 3.0 | 0.00 | 0.52 | 0.52 | 99 | 1006.6 |
| 20260506213513 | 46 | 275 | 3.0 | 4.0 | 0.00 | 0.52 | 0.52 | 99 | 1006.3 |
| 20260506213010 | 46 | 250 | 1.0 | 1.0 | 0.00 | 0.52 | 0.52 | 99 | 1006.4 |
| 20260506212506 | 46 | 261 | 1.0 | 2.0 | 0.00 | 0.52 | 0.52 | 99 | 1006.3 |
| 20260506212001 | 46 | 114 | 1.0 | 1.0 | 0.00 | 0.52 | 0.52 | 99 | 1006.0 |
| 20260506211457 | 46 | 180 | 1.0 | 2.0 | 0.00 | 0.52 | 0.52 | 99 | 1006.0 |
| 20260506210955 | 47 | 210 | 0.0 | 0.0 | 0.00 | 0.52 | 0.52 | 99 | 1005.8 |
| 20260506210451 | 47 | 160 | 0.0 | 0.0 | 0.05 | 0.52 | 0.52 | 99 | 1005.7 |
| 20260506205948 | 47 | 142 | 0.0 | 0.0 | 0.05 | 0.52 | 0.52 | 99 | 1005.9 |
| 20260506205444 | 47 | 180 | 1.0 | 1.0 | 0.00 | 0.51 | 0.51 | 99 | 1005.8 |
| 20260506204940 | 47 | 117 | 0.0 | 1.0 | 0.00 | 0.51 | 0.51 | 99 | 1005.3 |
| 20260506204438 | 47 | 117 | 1.0 | 1.0 | 0.00 | 0.51 | 0.51 | 99 | 1005.2 |
| 20260506203935 | 47 | 165 | 2.0 | 2.0 | 0.00 | 0.51 | 0.51 | 99 | 1005.1 |
| 20260506203432 | 48 | 205 | 1.0 | 1.0 | 0.00 | 0.51 | 0.51 | 99 | 1005.1 |
| 20260506202929 | 48 | 162 | 1.0 | 1.0 | 0.00 | 0.51 | 0.51 | 99 | 1005.0 |
| 20260506202427 | 47 | 116 | 1.0 | 2.0 | 0.00 | 0.51 | 0.51 | 99 | 1004.9 |
| 20260506201923 | 47 | 59 | 5.0 | 7.0 | 0.00 | 0.51 | 0.51 | 99 | 1004.7 |
| 20260506201421 | 48 | 110 | 2.0 | 3.0 | 0.00 | 0.51 | 0.51 | 99 | 1004.7 |
| 20260506200917 | 48 | 320 | 7.0 | 9.0 | 0.00 | 0.51 | 0.51 | 99 | 1004.6 |
| 20260506200413 | 48 | 101 | 1.0 | 1.0 | 0.07 | 0.51 | 0.51 | 99 | 1004.9 |
| 20260506195910 | 48 | 322 | 2.0 | 4.0 | 0.07 | 0.51 | 0.51 | 99 | 1004.8 |
| 20260506195407 | 48 | 70 | 4.0 | 6.0 | 0.00 | 0.50 | 0.50 | 99 | 1004.6 |
| 20260506194904 | 48 | 45 | 1.0 | 2.0 | 0.00 | 0.50 | 0.50 | 99 | 1004.6 |
| 20260506194401 | 49 | 293 | 3.0 | 3.0 | 0.00 | 0.50 | 0.50 | 99 | 1004.8 |
| 20260506193858 | 49 | 190 | 2.0 | 2.0 | 0.00 | 0.50 | 0.50 | 99 | 1004.6 |
| 20260506193354 | 49 | 288 | 4.0 | 6.0 | 0.05 | 0.50 | 0.50 | 99 | 1004.4 |
| 20260506192851 | 49 | 274 | 0.0 | 1.0 | 0.05 | 0.50 | 0.50 | 99 | 1004.4 |
| 20260506192348 | 49 | 143 | 0.0 | 0.0 | 0.00 | 0.49 | 0.49 | 99 | 1004.4 |
| 20260506191845 | 49 | 147 | 1.0 | 2.0 | 0.00 | 0.49 | 0.49 | 99 | 1004.3 |
| 20260506191341 | 49 | 144 | 1.0 | 2.0 | 0.00 | 0.49 | 0.49 | 99 | 1004.4 |
| 20260506190838 | 49 | 227 | 4.0 | 4.0 | 0.00 | 0.49 | 0.49 | 99 | 1004.4 |
| 20260506190334 | 50 | 64 | 1.0 | 2.0 | 0.00 | 0.49 | 0.49 | 99 | 1004.2 |
| 20260506185831 | 50 | 308 | 6.0 | 8.0 | 0.00 | 0.49 | 0.49 | 99 | 1004.2 |
| 20260506185328 | 50 | 283 | 3.0 | 3.0 | 0.00 | 0.49 | 0.49 | 99 | 1004.2 |
| 20260506184825 | 50 | 154 | 0.0 | 0.0 | 0.00 | 0.49 | 0.49 | 99 | 1004.2 |
| 20260506184322 | 50 | 179 | 4.0 | 4.0 | 0.00 | 0.49 | 0.49 | 99 | 1004.1 |
| 20260506183820 | 50 | 281 | 0.0 | 1.0 | 0.00 | 0.49 | 0.49 | 99 | 1003.9 |
| 20260506183315 | 51 | 74 | 3.0 | 7.0 | 0.00 | 0.49 | 0.49 | 99 | 1003.8 |
| 20260506182813 | 51 | 147 | 2.0 | 3.0 | 0.00 | 0.49 | 0.49 | 99 | 1003.9 |
| 20260506182309 | 52 | 107 | 2.0 | 3.0 | 0.07 | 0.49 | 0.49 | 99 | 1003.8 |
| 20260506181801 | 52 | 294 | 3.0 | 6.0 | 0.07 | 0.49 | 0.49 | 99 | 1003.8 |
| 20260506181259 | 54 | 62 | 4.0 | 7.0 | 0.00 | 0.48 | 0.48 | 99 | 1003.8 |
| 20260506180756 | 57 | 264 | 1.0 | 1.0 | 0.00 | 0.48 | 0.48 | 99 | 1003.6 |
| 20260506180252 | 57 | 326 | 4.0 | 6.0 | 0.00 | 0.48 | 0.48 | 99 | 1003.5 |
| 20260506175748 | 57 | 197 | 1.0 | 1.0 | 0.00 | 0.48 | 0.48 | 99 | 1003.3 |
| 20260506175245 | 57 | 250 | 2.0 | 2.0 | 0.00 | 0.48 | 0.48 | 99 | 1003.5 |
| 20260506174743 | 57 | 202 | 1.0 | 2.0 | 0.00 | 0.48 | 0.48 | 99 | 1003.3 |
| 20260506174239 | 57 | 168 | 3.0 | 4.0 | 0.00 | 0.48 | 0.48 | 99 | 1003.2 |
| 20260506173737 | 57 | 285 | 2.0 | 2.0 | 0.00 | 0.48 | 0.48 | 99 | 1003.4 |
| 20260506173234 | 57 | 324 | 1.0 | 2.0 | 0.00 | 0.48 | 0.48 | 99 | 1003.3 |
| 20260506172731 | 57 | 277 | 2.0 | 3.0 | 0.00 | 0.48 | 0.48 | 99 | 1003.5 |
| 20260506172227 | 57 | 180 | 0.0 | 1.0 | 0.00 | 0.48 | 0.48 | 99 | 1003.3 |
| 20260506171725 | 57 | 176 | 1.0 | 2.0 | 0.00 | 0.48 | 0.48 | 99 | 1003.2 |
| 20260506171222 | 57 | 205 | 2.0 | 3.0 | 0.00 | 0.48 | 0.48 | 99 | 1003.7 |
| 20260506170720 | 57 | 184 | 0.0 | 1.0 | 0.00 | 0.48 | 0.48 | 99 | 1003.7 |
| 20260506170216 | 57 | 185 | 1.0 | 1.0 | 0.05 | 0.48 | 0.48 | 99 | 1003.9 |
| 20260506165715 | 57 | 257 | 4.0 | 4.0 | 0.05 | 0.48 | 0.48 | 99 | 1003.7 |
| 20260506165211 | 57 | 165 | 1.0 | 1.0 | 0.00 | 0.47 | 0.47 | 99 | 1003.6 |
| 20260506164708 | 56 | 227 | 4.0 | 6.0 | 0.07 | 0.47 | 0.47 | 99 | 1003.7 |
| 20260506164205 | 56 | 173 | 1.0 | 2.0 | 0.07 | 0.47 | 0.47 | 99 | 1003.8 |
| 20260506163702 | 56 | 213 | 0.0 | 1.0 | 0.00 | 0.46 | 0.46 | 99 | 1003.6 |
| 20260506163157 | 56 | 335 | 3.0 | 3.0 | 0.00 | 0.46 | 0.46 | 99 | 1003.6 |
| 20260506162653 | 56 | 148 | 0.0 | 1.0 | 0.00 | 0.46 | 0.46 | 99 | 1003.5 |
| 20260506162151 | 56 | 143 | 1.0 | 1.0 | 0.00 | 0.46 | 0.46 | 99 | 1003.6 |
| 20260506161648 | 56 | 253 | 2.0 | 2.0 | 0.00 | 0.46 | 0.46 | 99 | 1003.9 |
| 20260506161144 | 56 | 143 | 0.0 | 0.0 | 0.05 | 0.46 | 0.46 | 99 | 1003.8 |
| 20260506160642 | 56 | 142 | 0.0 | 0.0 | 0.05 | 0.46 | 0.46 | 99 | 1004.0 |
| 20260506160139 | 56 | 194 | 1.0 | 2.0 | 0.00 | 0.45 | 0.45 | 99 | 1003.8 |
| 20260506155637 | 56 | 201 | 2.0 | 3.0 | 0.00 | 0.45 | 0.45 | 99 | 1003.9 |
| 20260506155134 | 56 | 151 | 2.0 | 2.0 | 0.07 | 0.45 | 0.45 | 99 | 1004.0 |
| 20260506153236 | 55 | 194 | 0.0 | 1.0 | 0.05 | 0.43 | 0.43 | 99 | 1004.3 |
| 20260506152733 | 55 | 121 | 1.0 | 1.0 | 0.07 | 0.42 | 0.42 | 99 | 1004.1 |
| 20260506152230 | 55 | 171 | 0.0 | 0.0 | 0.12 | 0.42 | 0.42 | 99 | 1004.2 |
| 20260506151730 | 55 | 171 | 1.0 | 2.0 | 0.05 | 0.41 | 0.41 | 99 | 1004.0 |
| 20260506151225 | 55 | 70 | 1.0 | 2.0 | 0.05 | 0.41 | 0.41 | 99 | 1004.0 |
| 20260506150722 | 56 | 215 | 2.0 | 2.0 | 0.07 | 0.40 | 0.40 | 99 | 1004.0 |
| 20260506150219 | 55 | 147 | 0.0 | 0.0 | 0.07 | 0.40 | 0.40 | 99 | 1004.1 |
| 20260506145717 | 55 | 164 | 0.0 | 1.0 | 0.05 | 0.39 | 0.39 | 99 | 1003.8 |
| 20260506145213 | 55 | 130 | 0.0 | 0.0 | 0.05 | 0.39 | 0.39 | 99 | 1004.0 |
| 20260506144710 | 55 | 130 | 0.0 | 0.0 | 0.00 | 0.38 | 0.38 | 99 | 1004.2 |
| 20260506144207 | 55 | 210 | 0.0 | 0.0 | 0.00 | 0.38 | 0.38 | 99 | 1003.7 |
| 20260506143705 | 55 | 134 | 0.0 | 0.0 | 0.07 | 0.38 | 0.38 | 99 | 1004.1 |
| 20260506143202 | 55 | 134 | 0.0 | 1.0 | 0.07 | 0.38 | 0.38 | 99 | 1003.9 |
| 20260506142701 | 55 | 130 | 0.0 | 0.0 | 0.00 | 0.37 | 0.37 | 99 | 1004.0 |
| 20260506142158 | 55 | 130 | 1.0 | 1.0 | 0.00 | 0.37 | 0.37 | 99 | 1004.0 |
| 20260506141656 | 54 | 130 | 1.0 | 1.0 | 0.05 | 0.37 | 0.37 | 99 | 1004.1 |
| 20260506141154 | 54 | 132 | 0.0 | 0.0 | 0.12 | 0.37 | 0.37 | 99 | 1004.1 |
| 20260506140651 | 54 | 132 | 0.0 | 0.0 | 0.12 | 0.36 | 0.36 | 99 | 1004.1 |
| 20260506140148 | 54 | 131 | 0.0 | 0.0 | 0.12 | 0.35 | 0.35 | 99 | 1004.2 |
| 20260506135645 | 54 | 131 | 1.0 | 2.0 | 0.12 | 0.34 | 0.34 | 99 | 1004.4 |
| 20260506135141 | 54 | 129 | 0.0 | 1.0 | 0.12 | 0.33 | 0.33 | 99 | 1004.3 |
| 20260506134638 | 54 | 134 | 0.0 | 0.0 | 0.14 | 0.32 | 0.32 | 99 | 1004.5 |
| 20260506134134 | 54 | 134 | 0.0 | 0.0 | 0.12 | 0.31 | 0.31 | 99 | 1004.6 |
| 20260506133631 | 54 | 135 | 0.0 | 0.0 | 0.17 | 0.30 | 0.30 | 99 | 1004.7 |
| 20260506133128 | 54 | 151 | 0.0 | 0.0 | 0.19 | 0.29 | 0.29 | 99 | 1004.9 |
| 20260506132626 | 54 | 152 | 0.0 | 1.0 | 0.24 | 0.28 | 0.28 | 99 | 1004.8 |
| 20260506132122 | 53 | 147 | 1.0 | 1.0 | 0.24 | 0.26 | 0.26 | 99 | 1005.0 |
| 20260506131620 | 53 | 150 | 0.0 | 0.0 | 0.28 | 0.24 | 0.24 | 99 | 1005.1 |
| 20260506131116 | 53 | 150 | 1.0 | 1.0 | 0.31 | 0.22 | 0.22 | 99 | 1005.2 |
| 20260506130613 | 53 | 150 | 0.0 | 0.0 | 0.19 | 0.19 | 0.19 | 99 | 1005.2 |
| 20260506130110 | 53 | 102 | 0.0 | 0.0 | 0.12 | 0.17 | 0.17 | 99 | 1005.1 |
| 20260506125609 | 53 | 211 | 0.0 | 1.0 | 0.12 | 0.16 | 0.16 | 99 | 1005.1 |
| 20260506125106 | 53 | 211 | 0.0 | 1.0 | 0.12 | 0.15 | 0.15 | 99 | 1004.6 |
| 20260506124603 | 53 | 211 | 1.0 | 2.0 | 0.07 | 0.14 | 0.14 | 99 | 1004.7 |
| 20260506124101 | 52 | 211 | 1.0 | 2.0 | 0.05 | 0.13 | 0.13 | 99 | 1004.8 |
| 20260506123559 | 52 | 211 | 0.0 | 0.0 | 0.05 | 0.13 | 0.13 | 99 | 1004.8 |
| 20260506123057 | 52 | 211 | 0.0 | 0.0 | 0.00 | 0.12 | 0.12 | 99 | 1004.6 |
| 20260506122553 | 52 | 211 | 0.0 | 0.0 | 0.07 | 0.12 | 0.12 | 99 | 1004.6 |
| 20260506122051 | 52 | 211 | 0.0 | 1.0 | 0.07 | 0.12 | 0.12 | 99 | 1004.7 |
| 20260506121549 | 51 | 211 | 0.0 | 0.0 | 0.07 | 0.12 | 0.12 | 99 | 1004.7 |
| 20260506121044 | 51 | 211 | 0.0 | 0.0 | 0.00 | 0.11 | 0.11 | 99 | 1004.7 |
| 20260506120543 | 51 | 211 | 0.0 | 0.0 | 0.00 | 0.11 | 0.11 | 99 | 1004.8 |
| 20260506120040 | 51 | 211 | 0.0 | 0.0 | 0.00 | 0.11 | 0.11 | 99 | 1004.8 |
| 20260506115538 | 51 | 211 | 0.0 | 0.0 | 0.00 | 0.11 | 0.11 | 99 | 1004.7 |
| 20260506115036 | 51 | 211 | 0.0 | 0.0 | 0.05 | 0.11 | 0.11 | 99 | 1005.0 |
| 20260506114533 | 50 | 211 | 0.0 | 0.0 | 0.05 | 0.11 | 0.11 | 99 | 1004.8 |
| 20260506114032 | 50 | 211 | 0.0 | 0.0 | 0.00 | 0.10 | 0.10 | 99 | 1005.1 |
| 20260506113529 | 50 | 211 | 0.0 | 0.0 | 0.07 | 0.10 | 0.10 | 99 | 1005.1 |
| 20260506113026 | 50 | 211 | 0.0 | 0.0 | 0.07 | 0.10 | 0.10 | 99 | 1005.1 |
| 20260506112522 | 50 | 211 | 0.0 | 0.0 | 0.00 | 0.09 | 0.09 | 99 | 1005.1 |
| 20260506112020 | 50 | 211 | 0.0 | 0.0 | 0.00 | 0.09 | 0.09 | 99 | 1004.9 |
| 20260506111518 | 50 | 211 | 0.0 | 0.0 | 0.05 | 0.09 | 0.09 | 99 | 1005.1 |
| 20260506111015 | 50 | 211 | 0.0 | 0.0 | 0.05 | 0.09 | 0.09 | 99 | 1005.2 |
| 20260506110513 | 50 | 211 | 0.0 | 0.0 | 0.00 | 0.08 | 0.08 | 99 | 1005.3 |
| 20260506110010 | 50 | 211 | 0.0 | 0.0 | 0.07 | 0.08 | 0.08 | 99 | 1005.4 |
| 20260506105505 | 50 | 211 | 0.0 | 0.0 | 0.12 | 0.08 | 0.08 | 99 | 1005.2 |
| 20260506105003 | 50 | 211 | 0.0 | 0.0 | 0.05 | 0.07 | 0.07 | 99 | 1005.4 |
| 20260506104501 | 50 | 211 | 0.0 | 0.0 | 0.07 | 0.06 | 0.06 | 99 | 1005.3 |
| 20260506103959 | 50 | 211 | 0.0 | 0.0 | 0.14 | 0.06 | 0.06 | 99 | 1005.1 |
| 20260506103455 | 50 | 211 | 0.0 | 0.0 | 0.12 | 0.05 | 0.05 | 99 | 1005.0 |
| 20260506102952 | 50 | 211 | 0.0 | 0.0 | 0.05 | 0.04 | 0.04 | 99 | 1004.9 |
| 20260506102450 | 50 | 211 | 0.0 | 0.0 | 0.07 | 0.03 | 0.03 | 99 | 1004.9 |
| 20260506101947 | 50 | 211 | 0.0 | 0.0 | 0.07 | 0.03 | 0.03 | 99 | 1004.9 |
| 20260506101444 | 50 | 211 | 0.0 | 0.0 | 0.05 | 0.02 | 0.02 | 99 | 1005.1 |
| 20260506100941 | 49 | 211 | 0.0 | 0.0 | 0.05 | 0.02 | 0.02 | 99 | 1005.0 |
| 20260506100439 | 49 | 211 | 0.0 | 0.0 | 0.00 | 0.01 | 0.01 | 99 | 1004.7 |
| 20260506095937 | 49 | 211 | 0.0 | 0.0 | 0.00 | 0.01 | 0.01 | 99 | 1004.7 |
| 20260506095436 | 50 | 211 | 0.0 | 0.0 | 0.00 | 0.01 | 0.01 | 99 | 1004.8 |
| 20260506094931 | 50 | 211 | 0.0 | 0.0 | 0.00 | 0.01 | 0.01 | 99 | 1004.6 |
| 20260506094430 | 50 | 211 | 0.0 | 0.0 | 0.00 | 0.01 | 0.01 | 99 | 1004.6 |
| 20260506093927 | 49 | 211 | 0.0 | 0.0 | 0.00 | 0.01 | 0.01 | 99 | 1004.8 |
| 20260506093425 | 49 | 211 | 0.0 | 0.0 | 0.07 | 0.01 | 0.01 | 99 | 1004.9 |
| 20260506092923 | 49 | 211 | 0.0 | 0.0 | 0.07 | 0.01 | 0.01 | 99 | 1005.1 |
| 20260506092420 | 49 | 211 | 0.0 | 0.0 | 0.00 | 0.00 | 0.00 | 99 | 1004.7 |
| 20260506091916 | 49 | 211 | 0.0 | 0.0 | 0.00 | 0.00 | 0.00 | 99 | 1004.9 |
| 20260506091415 | 49 | 211 | 0.0 | 0.0 | 0.00 | 0.00 | 0.00 | 99 | 1004.9 |
| 20260506090912 | 49 | 211 | 0.0 | 0.0 | 0.00 | 0.00 | 0.00 | 99 | 1004.8 |
| 20260506090409 | 49 | 211 | 0.0 | 0.0 | 0.00 | 0.00 | 0.00 | 99 | 1004.9 |
| 20260506085906 | 49 | 211 | 1.0 | 1.0 | 0.00 | 0.00 | 0.00 | 99 | 1005.1 |
| 20260506085403 | 49 | 211 | 0.0 | 0.0 | 0.00 | 0.00 | 0.00 | 99 | 1004.9 |
| 20260506084859 | 49 | 211 | 0.0 | 0.0 | 0.00 | 0.00 | 0.00 | 99 | 1005.1 |
| 20260506084355 | 49 | 211 | 0.0 | 0.0 | 0.00 | 0.00 | 0.00 | 99 | 1005.1 |
| 20260506083852 | 49 | 211 | 0.0 | 0.0 | 0.00 | 0.00 | 0.00 | 99 | 1005.0 |
| 20260506083350 | 49 | 212 | 0.0 | 0.0 | 0.00 | 0.00 | 0.00 | 99 | 1004.8 |
| 20260506082847 | 49 | 212 | 0.0 | 0.0 | 0.00 | 0.00 | 0.00 | 99 | 1004.8 |
| 20260506082344 | 49 | 212 | 1.0 | 1.0 | 0.00 | 0.00 | 0.00 | 99 | 1004.9 |
| 20260506081839 | 49 | 212 | 0.0 | 0.0 | 0.00 | 0.00 | 0.00 | 99 | 1004.8 |
| 20260506081338 | 49 | 131 | 0.0 | 0.0 | 0.00 | 0.00 | 0.00 | 99 | 1004.8 |
| 20260506080835 | 49 | 131 | 0.0 | 0.0 | 0.00 | 0.00 | 0.00 | 99 | 1004.8 |
| 20260506080331 | 49 | 131 | 0.0 | 0.0 | 0.00 | 0.00 | 0.00 | 99 | 1005.0 |
| 20260506073316 | 49 | 132 | 0.0 | 0.0 | 0.00 | 0.00 | 0.00 | 99 | 1005.0 |
| 20260506072812 | 49 | 132 | 0.0 | 0.0 | 0.00 | 0.00 | 0.00 | 99 | 1005.1 |
| 20260506072310 | 49 | 132 | 0.0 | 0.0 | 0.00 | 0.00 | 0.00 | 99 | 1005.0 |
| 20260506071808 | 49 | 132 | 0.0 | 1.0 | 0.00 | 0.00 | 0.00 | 99 | 1005.2 |
| 20260506071306 | 49 | 128 | 0.0 | 1.0 | 0.00 | 0.00 | 0.00 | 99 | 1005.3 |
| 20260506070802 | 49 | 150 | 0.0 | 0.0 | 0.00 | 0.00 | 0.00 | 99 | 1005.2 |
| 20260506070259 | 49 | 150 | 0.0 | 0.0 | 0.00 | 0.00 | 0.00 | 99 | 1005.7 |
| 20260506062236 | 49 | 167 | 0.0 | 0.0 | 0.00 | 0.00 | 0.00 | 99 | 1005.9 |
| 20260506061732 | 49 | 167 | 1.0 | 1.0 | 0.00 | 0.00 | 0.00 | 99 | 1006.2 |
| 20260506061230 | 49 | 174 | 0.0 | 0.0 | 0.00 | 0.00 | 0.00 | 99 | 1006.4 |
| 20260506060728 | 49 | 134 | 0.0 | 0.0 | 0.00 | 0.00 | 0.00 | 99 | 1006.2 |
| 20260506060225 | 49 | 135 | 0.0 | 0.0 | 0.00 | 0.00 | 0.00 | 99 | 1006.5 |
| 20260506051151 | 49 | 104 | 1.0 | 1.0 | 0.00 | 0.00 | 0.00 | 99 | 1007.3 |
| 20260506050649 | 49 | 131 | 0.0 | 0.0 | 0.00 | 0.00 | 0.00 | 99 | 1007.4 |
| 20260506050146 | 49 | 131 | 0.0 | 0.0 | 0.00 | 0.00 | 0.00 | 99 | 1007.2 |
| 20260506044637 | 50 | 131 | 0.0 | 0.0 | 0.00 | 0.00 | 0.00 | 99 | 1007.1 |
| 20260506044134 | 50 | 131 | 0.0 | 0.0 | 0.00 | 0.00 | 0.00 | 99 | 1007.1 |
| 20260506043631 | 50 | 131 | 0.0 | 0.0 | 0.00 | 0.00 | 0.00 | 99 | 1007.1 |
| 20260506043129 | 50 | 131 | 0.0 | 0.0 | 0.00 | 0.00 | 0.00 | 99 | 1007.2 |
| 20260506042628 | 50 | 131 | 0.0 | 0.0 | 0.00 | 0.00 | 0.00 | 99 | 1007.3 |
| 20260506042125 | 50 | 131 | 0.0 | 0.0 | 0.00 | 0.00 | 0.00 | 99 | 1007.5 |
| 20260506041624 | 50 | 131 | 0.0 | 0.0 | 0.00 | 0.00 | 0.00 | 99 | 1007.4 |
| 20260506041120 | 50 | 131 | 0.0 | 0.0 | 0.00 | 0.00 | 0.00 | 99 | 1007.4 |
| 20260506040618 | 50 | 131 | 0.0 | 0.0 | 0.00 | 0.00 | 0.00 | 99 | 1007.5 |
| 20260506040115 | 50 | 131 | 0.0 | 0.0 | 0.00 | 0.22 | 0.22 | 99 | 1007.6 |
| 20260506035611 | 50 | 131 | 0.0 | 0.0 | 0.00 | 0.22 | 0.22 | 99 | 1007.7 |
| 20260506035108 | 50 | 131 | 0.0 | 0.0 | 0.00 | 0.22 | 0.22 | 99 | 1007.6 |
| 20260506034605 | 50 | 131 | 0.0 | 0.0 | 0.00 | 0.22 | 0.22 | 99 | 1007.5 |
| 20260506034102 | 51 | 131 | 0.0 | 0.0 | 0.00 | 0.22 | 0.22 | 98 | 1007.3 |
| 20260506033559 | 51 | 131 | 0.0 | 0.0 | 0.00 | 0.22 | 0.22 | 98 | 1007.5 |
| 20260506033056 | 52 | 131 | 0.0 | 0.0 | 0.00 | 0.22 | 0.22 | 97 | 1007.7 |
| 20260506032554 | 52 | 131 | 0.0 | 0.0 | 0.00 | 0.22 | 0.22 | 97 | 1007.4 |
| 20260506032050 | 52 | 131 | 0.0 | 0.0 | 0.00 | 0.22 | 0.22 | 95 | 1007.5 |
| 20260506031548 | 53 | 130 | 0.0 | 1.0 | 0.00 | 0.22 | 0.22 | 96 | 1007.6 |
| 20260506031044 | 53 | 151 | 0.0 | 0.0 | 0.00 | 0.22 | 0.22 | 97 | 1007.5 |
| 20260506030543 | 53 | 152 | 0.0 | 0.0 | 0.00 | 0.22 | 0.22 | 97 | 1007.7 |
| 20260506030040 | 53 | 151 | 0.0 | 0.0 | 0.00 | 0.22 | 0.22 | 95 | 1007.5 |
| 20260506025537 | 54 | 129 | 0.0 | 0.0 | 0.00 | 0.22 | 0.22 | 95 | 1007.6 |
| 20260506025033 | 54 | 73 | 1.0 | 1.0 | 0.00 | 0.22 | 0.22 | 96 | 1007.7 |
| 20260506024530 | 54 | 72 | 1.0 | 1.0 | 0.00 | 0.22 | 0.22 | 96 | 1007.8 |
| 20260506024026 | 55 | 71 | 1.0 | 1.0 | 0.00 | 0.22 | 0.22 | 97 | 1007.8 |
| 20260506023522 | 55 | 139 | 1.0 | 2.0 | 0.00 | 0.22 | 0.22 | 97 | 1007.9 |
| 20260506023020 | 55 | 97 | 2.0 | 2.0 | 0.00 | 0.22 | 0.22 | 98 | 1007.5 |
| 20260506022517 | 55 | 125 | 2.0 | 3.0 | 0.00 | 0.22 | 0.22 | 99 | 1007.6 |
| 20260506022015 | 55 | 100 | 0.0 | 1.0 | 0.00 | 0.22 | 0.22 | 99 | 1007.3 |
| 20260506021512 | 55 | 100 | 0.0 | 1.0 | 0.00 | 0.22 | 0.22 | 99 | 1007.3 |